Stations météo

réclame
Mon MeteoGroup
Chievres, Belgique (6432): Température de l'air & dewpoint: 18.11.2017 15:00:00 - 24.11.2017 15:00:00 (CET)Chievres, Belgique (6432): Vitesse du vent & gusts: 18.11.2017 15:00:00 - 24.11.2017 15:00:00 (CET)Chievres, Belgique (6432): Direction du vent: 18.11.2017 15:00:00 - 24.11.2017 15:00:00 (CET)Chievres, Belgique (6432): reduced air pressure: 18.11.2017 15:00:00 - 24.11.2017 15:00:00 (CET)Chievres, Belgique (6432): visibility: 18.11.2017 15:00:00 - 24.11.2017 15:00:00 (CET)
Date & Time tt [°C] td [°C] ff [km/h] ff [knt] fx [km/h] fx [knt] dd ppp [hPa] vv [km]
24.11.2017 15:00:00 10,3 5,5 4 2 7 4 N 1012,1 20
24.11.2017 14:00:00 9,8 6,0 4 2 11 6 N 1012,0 17
24.11.2017 13:00:00 9,6 6,3 7 4 - - WSW 1012,0 7
24.11.2017 12:00:00 8,8 6,2 7 4 14 8 WSW 1011,8 15
24.11.2017 11:00:00 7,4 6,7 7 4 11 6 WSW 1011,6 3,9
24.11.2017 10:00:00 7,1 6,9 8 4 - - SSW 1010,7 6
24.11.2017 09:00:00 6,8 6,7 4 2 7 4 - 1010,1 4,8
24.11.2017 08:00:00 6,5 6,5 8 4 11 6 W 1008,5 10
24.11.2017 07:00:00 6,9 6,9 9 5 - - NW 1008,0 8
24.11.2017 06:00:00 7,0 6,7 5 3 18 10 SSE 1006,2 5
24.11.2017 05:00:00 7,0 7,0 9 5 22 12 NNW 1007,2 10
24.11.2017 04:00:00 7,8 7,8 2 1 - - - 1006,6 2,2
24.11.2017 03:00:00 8,5 7,9 8 4 14 8 SSW 1007,2 4,8
24.11.2017 02:00:00 8,6 8,1 9 5 11 6 S 1007,7 10
24.11.2017 01:00:00 8,3 6,9 9 5 - - S 1008,8 10
24.11.2017 00:00:00 8,1 6,7 11 6 18 10 S 1009,2 10
23.11.2017 23:00:00 9,4 7,8 15 8 22 12 SSW 1009,7 10
23.11.2017 22:00:00 10,0 8,3 16 9 - - SSW 1010,0 10
23.11.2017 21:00:00 9,3 7,4 15 8 22 12 SSW 1009,6 10
23.11.2017 20:00:00 9,2 7,0 15 8 22 12 SSW 1009,1 10
23.11.2017 19:00:00 8,3 6,5 15 8 - - SSW 1009,0 10
23.11.2017 18:00:00 8,4 5,8 11 6 22 12 SW 1008,2 10
23.11.2017 17:00:00 10,4 6,9 11 6 25 14 WSW 1007,2 10
23.11.2017 16:00:00 11,6 8,5 18 10 - - W 1006,2 10
23.11.2017 15:00:00 12,0 9,1 21 11 40 21 WSW 1005,2 10
23.11.2017 14:00:00 11,5 10,7 22 12 61 33 WSW 1004,2 10
23.11.2017 13:00:00 14,6 10,7 41 22 - - SSW 1002,6 10
23.11.2017 12:00:00 14,5 10,3 41 22 58 31 SSW 1002,1 10
23.11.2017 11:00:00 13,8 9,7 39 21 58 31 SSW 1001,5 10
23.11.2017 10:00:00 13,8 8,9 41 22 - - SSW 1000,5 10
23.11.2017 09:00:00 13,0 7,9 42 23 72 39 SSW 999,4 10
23.11.2017 08:00:00 13,0 6,6 44 24 68 37 SSW 997,9 10
23.11.2017 07:00:00 12,9 5,8 41 22 - - S 997,2 10
23.11.2017 06:00:00 11,8 5,2 31 17 54 29 S 997,4 10
23.11.2017 05:00:00 11,2 5,1 35 19 50 27 S 997,9 10
23.11.2017 04:00:00 11,5 4,4 34 18 - - S 998,7 10
23.11.2017 03:00:00 11,8 4,1 34 18 50 27 S 999,0 10
23.11.2017 02:00:00 12,0 3,9 34 18 47 25 S 999,4 10
23.11.2017 01:00:00 11,3 4,2 31 17 - - S 1000,0 10
23.11.2017 00:00:00 11,6 4,0 31 17 47 25 SSW 1000,7 10
22.11.2017 23:00:00 11,6 3,9 28 15 47 25 S 1001,3 10
22.11.2017 22:00:00 11,6 3,9 26 14 - - S 1001,6 10
22.11.2017 21:00:00 11,0 4,1 28 15 47 25 S 1001,7 10
22.11.2017 20:00:00 10,6 4,7 26 14 36 19 S 1002,7 10
22.11.2017 19:00:00 10,3 5,2 24 13 - - S 1003,3 10
22.11.2017 18:00:00 10,1 5,4 24 13 36 19 S 1003,7 10
22.11.2017 17:00:00 10,3 6,0 21 11 29 16 S 1004,2 10
22.11.2017 16:00:00 11,1 6,5 21 11 - - S 1005,2 10
22.11.2017 15:00:00 12,3 6,3 26 14 43 23 S 1005,7 10
22.11.2017 14:00:00 12,8 6,6 24 13 36 19 S 1006,2 10
22.11.2017 13:00:00 11,8 7,1 22 12 - - S 1007,1 10
22.11.2017 12:00:00 10,8 7,0 26 14 40 21 S 1008,1 10
22.11.2017 11:00:00 10,3 7,4 26 14 36 19 S 1008,7 10
22.11.2017 10:00:00 9,3 7,3 21 11 - - S 1009,0 8
22.11.2017 09:00:00 9,1 7,4 28 15 40 21 SSW 1009,2 8
22.11.2017 08:00:00 9,7 7,7 29 16 47 25 SSW 1009,1 10
22.11.2017 07:00:00 9,6 7,8 26 14 - - SSW 1008,7 10
22.11.2017 06:00:00 10,1 7,9 29 16 43 23 SSW 1008,8 10
22.11.2017 05:00:00 10,3 7,9 29 16 43 23 SSW 1009,2 10
22.11.2017 04:00:00 10,2 8,0 31 17 - - SSW 1009,5 10
22.11.2017 03:00:00 10,1 7,9 29 16 43 23 SSW 1010,1 10
22.11.2017 02:00:00 10,3 7,7 29 16 43 23 SSW 1010,3 10
22.11.2017 01:00:00 10,2 7,6 26 14 - - SSW 1011,1 10
22.11.2017 00:00:00 9,8 7,8 26 14 36 19 SSW 1011,2 10
21.11.2017 23:00:00 9,8 7,8 24 13 36 19 SSW 1011,3 10
21.11.2017 22:00:00 9,5 7,6 24 13 - - SSW 1011,7 10
21.11.2017 21:00:00 9,8 7,6 28 15 40 21 SSW 1012,2 10
21.11.2017 20:00:00 9,8 7,6 29 16 43 23 SSW 1012,2 10
21.11.2017 19:00:00 9,8 7,5 24 13 - - SSW 1012,7 10
21.11.2017 18:00:00 9,6 7,8 26 14 40 21 SSW 1012,8 10
21.11.2017 17:00:00 9,6 7,8 26 14 40 21 SSW 1013,1 10
21.11.2017 16:00:00 9,8 7,9 24 13 - - SSW 1013,2 10
21.11.2017 15:00:00 10,1 8,0 28 15 40 21 SSW 1013,7 10
21.11.2017 14:00:00 10,3 8,1 26 14 36 19 SSW 1014,0 10
21.11.2017 13:00:00 10,4 8,5 22 12 - - SW 1014,3 10
21.11.2017 12:00:00 10,1 8,7 24 13 32 18 SW 1014,8 10
21.11.2017 11:00:00 9,8 8,7 22 12 36 19 SW 1015,2 10
21.11.2017 10:00:00 9,6 8,9 22 12 - - SW 1015,0 10
21.11.2017 09:00:00 9,6 9,2 22 12 36 19 SW 1014,6 6
21.11.2017 08:00:00 9,8 9,6 22 12 32 18 SW 1014,2 3,1
21.11.2017 07:00:00 9,8 9,6 22 12 - - SW 1014,1 6
21.11.2017 06:00:00 9,9 9,9 21 11 25 14 SW 1014,2 1,7
21.11.2017 05:00:00 10,3 10,3 21 11 29 16 SW 1014,2 1,9
21.11.2017 04:00:00 10,3 10,3 21 11 - - SW 1014,0 3,5
21.11.2017 03:00:00 10,5 10,5 21 11 29 16 SW 1014,5 10
21.11.2017 02:00:00 10,3 10,3 18 10 29 16 SW 1014,3 7
21.11.2017 01:00:00 9,8 9,8 22 12 - - SW 1014,6 2,5
21.11.2017 00:00:00 9,6 9,6 18 10 29 16 SW 1014,6 3,5
20.11.2017 23:00:00 9,8 9,8 21 11 32 18 WSW 1014,5 3,8
20.11.2017 22:00:00 9,5 9,5 21 11 - - SW 1014,7 3,1
20.11.2017 21:00:00 9,1 9,1 24 13 40 21 SW 1014,7 2,3
20.11.2017 20:00:00 9,1 8,9 28 15 43 23 SW 1014,6 2,1
20.11.2017 19:00:00 9,3 8,7 29 16 - - SW 1014,5 2,9
20.11.2017 18:00:00 9,1 8,9 24 13 40 21 SW 1014,7 2,3
20.11.2017 17:00:00 9,1 8,7 24 13 36 19 WSW 1015,2 3,3
20.11.2017 16:00:00 8,8 8,5 22 12 - - SW 1015,5 5
20.11.2017 15:00:00 7,9 7,7 26 14 36 19 SW 1016,1 5
20.11.2017 14:00:00 7,4 7,2 24 13 32 18 SW 1016,8 3,0
20.11.2017 13:00:00 6,5 6,4 22 12 - - SW 1017,8 2,6
20.11.2017 12:00:00 5,6 5,6 28 15 40 21 SSW 1018,5 2,5
20.11.2017 11:00:00 5,1 4,7 26 14 32 18 SSW 1019,1 3,1
20.11.2017 10:00:00 4,6 3,2 21 11 - - SSW 1020,1 3,4
20.11.2017 09:00:00 3,7 2,7 16 9 25 14 SSW 1020,6 10
20.11.2017 08:00:00 3,0 2,0 15 8 18 10 SSW 1021,3 10
20.11.2017 07:00:00 2,7 1,7 15 8 - - SSW 1021,6 10
20.11.2017 06:00:00 2,4 1,4 11 6 14 8 S 1021,7 10
20.11.2017 05:00:00 2,2 1,3 11 6 22 12 S 1022,2 7
20.11.2017 04:00:00 1,2 0,7 8 4 - - SSW 1023,1 10
20.11.2017 03:00:00 0,7 0,3 9 5 11 6 SSW 1023,2 8
20.11.2017 02:00:00 0,4 0,2 8 4 11 6 SSW 1023,7 7
20.11.2017 01:00:00 1,1 0,8 9 5 - - SSW 1024,2 6
20.11.2017 00:00:00 1,2 0,7 8 4 11 6 SSW 1024,9 10
19.11.2017 23:00:00 0,4 0,1 9 5 11 6 SW 1024,9 7
19.11.2017 22:00:00 0,8 0,4 8 4 - - SW 1024,9 7
19.11.2017 21:00:00 2,5 1,2 8 4 11 6 WSW 1024,5 10
19.11.2017 20:00:00 2,5 1,3 9 5 14 8 WSW 1024,4 10
19.11.2017 19:00:00 3,0 1,4 8 4 - - WSW 1024,0 10
19.11.2017 18:00:00 3,4 1,5 9 5 14 8 W 1023,6 10
19.11.2017 17:00:00 3,7 1,8 9 5 14 8 W 1023,2 10
19.11.2017 16:00:00 6,5 2,7 13 7 - - W 1022,8 10
19.11.2017 15:00:00 7,4 3,0 18 10 22 12 WNW 1022,7 10
19.11.2017 14:00:00 7,0 3,4 16 9 25 14 WNW 1022,7 10
19.11.2017 13:00:00 7,7 3,6 16 9 - - W 1022,5 10
19.11.2017 12:00:00 7,0 3,8 15 8 22 12 W 1022,3 10
19.11.2017 11:00:00 5,6 2,9 13 7 18 10 W 1022,2 10
19.11.2017 10:00:00 4,0 2,4 11 6 - - WSW 1021,7 10
19.11.2017 09:00:00 1,7 0,2 11 6 11 6 WSW 1021,3 10
19.11.2017 08:00:00 1,5 -0,2 8 4 11 6 W 1020,7 10
19.11.2017 07:00:00 1,8 0,1 5 3 - - W 1020,1 10
19.11.2017 06:00:00 2,1 0,7 11 6 14 8 W 1019,7 10
19.11.2017 05:00:00 2,4 1,6 11 6 14 8 W 1019,5 10
19.11.2017 04:00:00 3,8 2,9 9 5 - - W 1019,1 10
19.11.2017 03:00:00 5,5 4,7 11 6 14 8 W 1018,8 10
19.11.2017 02:00:00 5,6 5,0 9 5 14 8 W 1018,5 10
19.11.2017 01:00:00 6,0 5,6 13 7 - - W 1018,7 6
19.11.2017 00:00:00 6,5 6,2 9 5 14 8 W 1018,6 6
18.11.2017 23:00:00 6,6 6,4 9 5 14 8 WSW 1018,7 7
18.11.2017 22:00:00 6,9 6,7 9 5 - - WSW 1018,7 9
18.11.2017 21:00:00 6,8 6,7 8 4 18 10 WSW 1019,2 7
18.11.2017 20:00:00 7,0 7,0 9 5 18 10 NW 1019,5 2,7
18.11.2017 19:00:00 7,0 6,9 11 6 - - WSW 1019,7 5
18.11.2017 18:00:00 6,9 6,9 11 6 14 8 SW 1020,5 5
18.11.2017 17:00:00 6,9 6,7 13 7 32 18 WSW 1020,8 2,2
18.11.2017 16:00:00 8,3 4,5 13 7 - - W 1021,1 10
18.11.2017 15:00:00 8,4 3,5 16 9 29 16 WSW 1021,2 10

tt = Température de l'air
td = dewpoint
ff = Vitesse du vent
fx = gusts
dd = Direction du vent
ppp = reduced air pressure
vv = visibility

stations d'obs. à proximité